Temp
40 39 39 38 38 38 37 36 36 37 38 37 38 38 38 38 38 37 36 37 36 35 36 35 36 36 35 34 35 35 35 38 37 40 39 36 35 36 36 37 38 38 37
40 38 37 37 36 36 35 36 36 35 37 36 36 36 35 35 35 34 34 34 33 33 34 33 34 38 33 33 32 32 34 34 36 35 38 36 32 32 33 33 36 37 38
38 36 35 34 34 34 34 34 34 33 33 33 33 33 33 33 33 33 33 33 33 32 32 32 32 32 31 30 30 30 31 34 32 32 33 31 30 30 30 31 32 33 36
36 34 32 31 32 31 31 31 31 31 31 31 31 31 31 31 32 33 33 32 31 32 32 32 31 30 30 30 31 30 32 30 30 30 30 31 28 29 27 27 27 29 29
33 32 31 31 31 30 29 29 29 29 29 28 28 28 29 30 34 33 32 31 30 30 30 31 31 31 33 34 33 31 31 29 29 29 28 29 27 26 26 27 27 26 25
31 29 29 29 29 28 28 27 27 27 27 27 27 27 27 31 34 36 35 32 32 30 30 30 31 31 32 34 35 35 35 31 31 28 28 27 28 27 25 25 25 20 22
29 28 27 27 27 27 27 26 26 25 25 25 25 26 26 27 34 35 35 31 30 29 30 30 31 32 32 31 34 35 35 34 36 32 29 29 28 28 27 25 25 24 24
27 27 26 26 25 25 25 24 24 24 24 24 25 26 26 28 32 33 34 30 29 29 29 29 30 31 32 31 31 30 30 31 29 29 29 28 27 27 26 28 28 26 20
26 25 24 24 23 23 23 22 23 23 23 24 26 25 25 26 31 32 32 29 29 28 30 29 29 29 32 34 31 28 28 29 34 35 35 34 33 32 29 26 24 22 18
23 23 22 22 21 20 21 21 22 22 24 24 24 24 24 24 28 31 31 29 27 27 28 29 30 31 33 33 30 29 26 27 29 28 26 29 25 22 23 21 19 22 23
20 19 19 19 18 20 19 19 19 19 20 18 20 21 21 23 25 30 31 29 27 26 25 25 27 31 32 33 34 30 27 32 31 30 24 19 17 16 16 16 17 17 17
15 15 14 13 17 18 12 15 15 15 15 14 15 17 20 22 25 27 29 30 31 25 24 25 26 30 30 31 31 32 33 31 27 23 18 16 15 14 13 13 14 15 17
8 6 8 11 15 15 11 14 13 11 10 13 16 16 17 20 20 26 26 29 29 25 25 26 27 27 27 26 28 30 27 22 22 16 16 16 15 14 12 10 9 10 10
4 7 10 10 11 12 15 16 11 10 11 14 16 16 16 17 18 20 23 24 25 24 24 20 21 21 22 22 19 22 18 17 18 17 15 13 13 11 10 10 4 4 2
7 8 8 10 7 9 12 10 14 15 17 17 14 17 16 15 19 26 25 23 23 24 20 13 11 11 11 13 14 16 15 15 14 13 12 11 11 10 9 9 5 4 2
6 8 7 7 5 8 7 7 15 20 22 23 24 22 19 23 25 25 26 27 25 22 11 6 6 8 9 10 11 12 13 13 13 12 10 11 11 10 8 6 5 2 2
0 3 2 4 3 1 1 1 3 9 17 19 20 20 21 22 22 23 25 23 18 15 0 3 4 6 7 9 11 11 11 11 11 11 11 11 10 9 6 4 5 6 4
-8 -2 -5 -3 -4 -5 -3 -3 -4 -5 -0 4 11 15 18 18 20 21 20 15 3 4 -8 1 2 4 6 8 10 10 10 10 10 10 10 8 7 7 4 4 5 3 3
-6 -7 -7 -8 -8 -6 -6 -6 -7 -8 -6 -3 1 7 6 14 16 17 15 -8 -4 -1 -0 1 2 3 5 7 8 9 8 8 8 6 5 4 4 4 2 4 5 5 3
-12 -6 -6 -10 -9 -8 -7 -8 -8 -8 -7 -7 -5 -1 1 3 3 0 -4 -12 -6 -2 -1 -1 1 2 5 5 6 7 6 6 5 3 3 2 2 3 3 3 3 2 2
-11 -11 -7 -12 -12 -12 -12 -11 -11 -13 -10 -12 -8 -5 13 4 -4 -4 -4 -4 -5 -2 -1 -0 0 0 3 4 4 4 5 5 4 3 1 -0 0 -0 2 4 2 2 1
-10 -11 -13 -11 -10 -9 -11 -14 -16 -17 -13 -12 -7 -10 8 -12 -8 -7 -7 -6 -5 -4 -2 -0 0 -1 1 3 3 2 2 3 3 2 1 0 -0 -1 1 1 1 -0 -1
-4 -5 -8 -9 -12 -10 -14 -17 -18 -18 -15 -13 -11 -9 -10 -12 -12 -10 -8 -5 -5 -4 -3 -2 -1 -1 1 2 3 2 1 1 2 2 1 -1 -1 -1 -0 -1 -2 -2 -2
0 -2 -3 -4 -11 -14 -16 -15 -16 -14 -15 -13 -13 -13 -12 -10 -11 -8 -7 -6 -5 -4 -5 -5 -2 -3 -1 -0 0 1 1 1 2 1 1 -0 -1 -1 -1 -2 -2 -3 -3
-3 -3 -4 -9 -13 -13 -15 -13 -13 -16 -12 -12 -11 -16 -13 -11 -10 -9 -7 -6 -6 -5 -6 -6 -4 -4 -4 -2 -2 -2 -1 2 2 3 -1 -1 -2 -2 -3 -3 -3 -4 -4
-3 -3 -7 -10 -12 -13 -15 -16 -14 -13 -11 -11 -11 -11 -9 -8 -7 -8 -7 -7 -7 -5 -6 -7 -7 -7 -6 -4 -3 -0 2 6 3 2 -1 -2 -3 -4 -4 -4 -5 -5 -6
MSLP
1026.00 1026.18 1026.17 1026.28 1026.39 1026.56 1026.55 1026.41 1026.12 1025.79 1025.49 1025.18 1024.82 1024.44 1024.01 1023.87 1023.49 1023.25 1022.95 1022.53 1022.29 1022.01 1021.64 1021.19 1020.89 1020.60 1020.35 1020.00 1019.58 1019.26 1018.97 1018.79 1017.74 1014.52 1014.74 1014.64 1014.42 1014.35 1014.08 1013.92 1013.91 1013.94 1013.79
1026.45 1026.72 1026.88 1026.90 1026.99 1027.06 1027.09 1026.90 1026.54 1026.09 1025.68 1025.43 1025.07 1024.73 1024.40 1024.12 1023.79 1023.49 1023.22 1022.92 1022.53 1022.09 1021.67 1021.33 1020.87 1020.43 1020.15 1019.76 1019.27 1018.92 1018.59 1018.25 1017.92 1016.15 1015.04 1014.95 1014.64 1014.11 1014.09 1014.15 1013.70 1013.59 1013.55
1027.07 1027.26 1027.13 1027.39 1027.55 1027.55 1027.31 1026.98 1026.73 1026.60 1026.09 1025.86 1025.46 1025.17 1024.75 1024.44 1024.14 1023.73 1023.43 1023.15 1022.78 1022.37 1021.93 1021.48 1021.01 1020.53 1020.01 1019.51 1019.03 1018.52 1018.11 1017.71 1017.26 1016.47 1014.87 1014.76 1014.11 1013.84 1013.58 1013.69 1013.45 1013.27 1013.23
1027.53 1027.47 1027.81 1027.97 1027.97 1027.96 1027.71 1027.45 1027.18 1026.78 1026.52 1026.25 1025.81 1025.58 1025.34 1024.89 1024.25 1023.84 1023.46 1023.07 1022.70 1022.26 1021.90 1021.55 1021.12 1020.73 1020.25 1019.68 1019.13 1018.55 1017.96 1017.49 1016.80 1015.92 1015.00 1014.37 1014.14 1013.69 1013.88 1014.00 1013.41 1013.15 1013.11
1027.79 1028.10 1028.43 1028.38 1028.12 1028.03 1028.04 1027.72 1027.56 1027.23 1027.07 1026.77 1026.35 1025.96 1025.59 1024.95 1024.36 1023.78 1023.47 1023.21 1022.76 1022.35 1021.99 1021.44 1021.03 1020.79 1020.29 1019.65 1018.97 1018.18 1017.58 1017.04 1016.51 1016.00 1015.43 1014.97 1014.56 1014.21 1014.06 1013.38 1012.99 1012.77 1012.57
1028.52 1028.68 1028.65 1028.51 1028.42 1028.25 1028.24 1028.24 1028.04 1027.62 1027.27 1026.99 1026.67 1026.27 1025.83 1025.35 1024.49 1023.83 1023.35 1023.05 1022.61 1022.37 1021.91 1021.17 1020.93 1020.55 1019.92 1019.31 1018.71 1018.22 1017.64 1016.79 1015.92 1015.55 1014.95 1014.52 1013.98 1013.88 1013.72 1013.59 1013.41 1013.43 1013.20
1028.91 1028.99 1028.97 1028.99 1028.89 1028.91 1028.95 1028.72 1028.24 1027.69 1027.32 1027.13 1026.78 1026.42 1025.90 1025.38 1024.62 1024.09 1023.73 1023.28 1022.86 1022.50 1021.86 1020.98 1020.45 1020.13 1019.54 1018.81 1018.05 1017.36 1016.68 1016.33 1015.77 1015.05 1014.36 1014.11 1013.77 1013.69 1013.55 1013.30 1013.05 1013.02 1012.73
1029.30 1029.35 1029.36 1029.38 1029.30 1029.35 1029.01 1028.67 1028.38 1028.19 1027.94 1027.48 1027.17 1026.69 1026.25 1025.85 1025.08 1024.37 1023.68 1023.25 1022.90 1022.51 1021.99 1021.28 1020.53 1019.72 1019.19 1018.53 1017.69 1016.82 1016.21 1015.59 1015.11 1014.50 1013.79 1013.44 1013.47 1013.35 1013.29 1013.09 1012.71 1012.44 1012.45
1029.51 1029.61 1029.73 1029.79 1029.72 1029.45 1029.32 1029.18 1028.90 1028.68 1028.08 1027.63 1027.36 1026.88 1026.50 1025.88 1025.17 1024.37 1023.58 1023.12 1022.69 1022.26 1021.72 1021.10 1020.48 1019.71 1019.08 1018.26 1017.30 1016.29 1015.39 1014.73 1014.16 1013.63 1013.00 1012.59 1012.51 1012.70 1012.98 1012.73 1012.44 1012.60 1012.44
1030.14 1030.31 1030.39 1030.29 1030.04 1029.56 1029.76 1029.38 1029.06 1028.91 1028.29 1027.87 1027.44 1026.96 1026.55 1026.07 1025.45 1024.59 1023.77 1023.25 1022.74 1022.15 1021.64 1020.96 1020.42 1019.67 1018.59 1017.75 1016.93 1015.96 1014.70 1014.10 1013.54 1012.80 1012.50 1012.11 1012.78 1012.97 1012.95 1012.87 1012.90 1012.62 1012.29
1030.74 1030.64 1030.65 1030.15 1030.25 1029.93 1029.54 1029.19 1029.38 1028.77 1028.47 1027.96 1027.66 1027.18 1026.59 1026.28 1025.73 1024.76 1024.02 1023.42 1022.84 1022.07 1021.46 1020.58 1020.06 1019.36 1018.26 1017.25 1016.39 1015.47 1014.53 1013.58 1012.75 1012.23 1011.94 1012.20 1012.51 1012.73 1013.01 1013.05 1012.94 1012.90 1012.60
1030.71 1030.79 1030.55 1030.47 1030.17 1029.53 1029.51 1029.64 1029.35 1028.90 1028.54 1028.27 1027.82 1027.24 1026.73 1026.26 1025.67 1024.95 1024.22 1023.58 1022.86 1022.43 1021.67 1020.93 1019.97 1018.93 1017.95 1016.93 1015.95 1014.92 1014.22 1013.53 1012.88 1012.28 1012.15 1012.30 1012.48 1012.56 1012.80 1013.04 1013.06 1012.99 1012.81
1030.73 1030.71 1030.55 1030.20 1030.11 1030.08 1029.89 1029.46 1029.16 1028.93 1028.83 1028.45 1028.00 1027.43 1026.82 1026.31 1025.88 1025.05 1024.39 1023.30 1022.87 1022.35 1022.01 1021.07 1020.20 1019.12 1017.89 1016.60 1015.68 1014.84 1014.16 1013.80 1013.06 1012.44 1012.02 1011.91 1012.09 1012.46 1012.85 1013.17 1013.33 1013.33 1013.26
1031.01 1030.83 1030.66 1030.54 1030.45 1030.22 1029.89 1029.55 1029.39 1029.15 1028.74 1028.36 1027.88 1027.38 1026.92 1026.36 1025.66 1024.80 1023.95 1023.10 1022.76 1022.20 1021.73 1021.13 1020.48 1019.45 1018.44 1017.23 1015.79 1014.94 1014.59 1013.83 1013.09 1012.48 1012.14 1012.24 1012.47 1012.89 1012.98 1013.19 1013.62 1013.60 1013.69
1031.05 1030.89 1030.81 1030.78 1030.77 1030.51 1030.18 1029.75 1029.34 1029.12 1028.62 1027.96 1027.74 1027.29 1026.84 1026.16 1025.32 1024.38 1023.67 1022.95 1022.54 1022.15 1021.59 1021.36 1020.56 1019.53 1018.48 1017.62 1016.52 1015.48 1014.66 1013.92 1013.34 1012.95 1012.74 1012.73 1012.77 1013.01 1013.15 1013.33 1013.56 1013.85 1014.04
1031.09 1031.17 1031.26 1031.23 1031.11 1030.79 1030.56 1030.08 1029.46 1028.70 1028.25 1027.76 1027.36 1027.07 1026.73 1025.95 1025.06 1024.33 1023.50 1022.79 1022.81 1022.70 1022.32 1022.16 1021.31 1020.41 1019.36 1018.33 1017.19 1015.98 1015.03 1014.42 1013.91 1013.54 1013.22 1013.11 1013.08 1013.12 1013.26 1013.56 1013.76 1013.90 1014.07
1031.55 1031.68 1031.67 1031.52 1031.45 1031.50 1031.17 1030.71 1030.09 1028.99 1028.48 1028.05 1027.71 1027.29 1026.56 1025.88 1025.15 1024.20 1023.26 1023.22 1023.57 1023.21 1023.54 1022.75 1022.03 1021.05 1019.87 1018.74 1017.70 1016.72 1015.73 1015.13 1014.58 1014.05 1013.79 1013.61 1013.57 1013.59 1013.64 1013.74 1013.87 1013.91 1013.95
1031.59 1031.71 1031.71 1031.58 1031.70 1031.70 1031.61 1031.35 1031.10 1030.48 1029.62 1028.61 1028.12 1027.44 1026.65 1026.07 1025.17 1024.38 1024.21 1024.06 1023.88 1023.66 1023.87 1023.17 1022.28 1021.35 1020.24 1019.11 1018.06 1017.10 1016.18 1015.46 1014.93 1014.55 1014.29 1014.13 1014.02 1013.99 1014.00 1013.98 1014.00 1014.11 1014.21
1031.34 1031.43 1031.42 1031.54 1031.65 1031.67 1031.58 1031.45 1031.36 1030.98 1030.49 1029.73 1028.63 1027.62 1027.54 1026.41 1025.49 1025.13 1025.22 1025.35 1025.21 1024.40 1023.82 1023.17 1022.38 1021.50 1020.40 1019.46 1018.53 1017.59 1016.73 1016.04 1015.45 1015.08 1014.83 1014.59 1014.45 1014.36 1014.28 1014.21 1014.21 1014.31 1014.50
1031.05 1031.16 1031.34 1031.54 1031.66 1031.69 1031.60 1031.75 1031.52 1031.26 1030.81 1030.22 1029.46 1028.60 1027.62 1026.77 1026.11 1025.99 1025.80 1025.45 1025.23 1024.60 1023.87 1023.11 1022.19 1021.49 1020.51 1019.62 1018.80 1017.92 1017.13 1016.42 1015.89 1015.56 1015.27 1015.04 1014.80 1014.58 1014.52 1014.50 1014.51 1014.61 1014.75
1030.63 1030.83 1030.98 1031.30 1031.62 1031.66 1031.67 1031.67 1031.57 1031.32 1030.95 1030.44 1029.76 1028.82 1027.78 1027.23 1027.22 1026.64 1026.12 1025.62 1025.23 1024.56 1023.71 1022.89 1022.06 1021.43 1020.55 1019.68 1018.94 1018.20 1017.47 1016.82 1016.29 1015.91 1015.62 1015.37 1015.11 1014.96 1014.82 1014.77 1014.82 1014.94 1015.15
1030.04 1030.43 1030.84 1031.29 1031.20 1031.28 1031.29 1031.13 1031.35 1031.35 1030.82 1030.26 1029.41 1028.81 1028.01 1027.70 1027.26 1026.70 1026.12 1025.61 1025.01 1024.39 1023.54 1022.74 1021.88 1021.31 1020.50 1019.73 1019.06 1018.42 1017.76 1017.07 1016.49 1016.10 1015.83 1015.57 1015.38 1015.23 1015.16 1015.18 1015.18 1015.39 1015.69
1029.71 1030.17 1030.49 1030.68 1030.79 1030.84 1031.02 1030.90 1031.18 1031.18 1030.64 1029.97 1029.24 1028.58 1027.96 1027.59 1027.03 1026.52 1025.89 1025.24 1024.60 1023.85 1023.04 1022.42 1021.68 1021.00 1020.25 1019.65 1019.08 1018.55 1018.00 1017.34 1016.78 1016.27 1015.94 1015.78 1015.61 1015.50 1015.50 1015.58 1015.65 1015.88 1016.19
1029.10 1029.55 1029.93 1030.14 1030.45 1030.65 1030.98 1030.95 1030.72 1030.42 1030.11 1029.60 1029.04 1028.41 1027.78 1027.20 1026.75 1026.13 1025.45 1024.76 1024.11 1023.33 1022.58 1022.06 1021.39 1020.79 1020.05 1019.45 1018.92 1018.39 1017.91 1017.32 1016.64 1016.32 1016.04 1015.90 1015.86 1015.75 1015.75 1015.93 1016.14 1016.33 1016.61
1028.76 1029.22 1029.54 1029.89 1030.29 1030.60 1030.81 1030.71 1030.48 1030.02 1029.53 1029.07 1028.45 1027.85 1027.13 1026.64 1026.16 1025.53 1024.85 1024.20 1023.64 1022.98 1022.20 1021.61 1020.99 1020.30 1019.74 1019.12 1018.67 1018.14 1017.62 1017.08 1016.59 1016.27 1016.17 1016.02 1015.99 1016.04 1016.07 1016.22 1016.46 1016.73 1017.01
1028.46 1028.75 1029.07 1029.43 1029.84 1030.11 1030.49 1030.50 1030.02 1029.50 1029.07 1028.36 1027.74 1027.20 1026.79 1026.30 1025.63 1024.97 1024.31 1023.67 1023.11 1022.43 1021.77 1021.17 1020.51 1019.93 1019.36 1018.72 1018.22 1017.67 1017.13 1016.55 1016.19 1016.18 1016.22 1016.20 1016.18 1016.29 1016.42 1016.54 1016.80 1017.03 1017.35
Wind_Speed
7 7 8 7 7 6 6 6 6 6 7 7 6 7 7 7 7 6 6 6 7 7 6 6 8 6 5 4 4 4 4 5 10 15 4 2 3 5 5 4 5 5 5
6 7 7 7 6 6 5 5 5 6 6 7 7 7 7 7 7 6 7 7 7 8 8 7 8 7 7 6 4 6 6 6 8 18 11 7 5 3 5 6 5 5 6
6 5 6 6 5 5 5 6 7 7 7 7 7 8 9 9 8 7 7 8 8 8 8 8 9 8 8 6 6 6 6 6 6 8 12 3 4 2 4 4 5 4 4
5 6 6 6 5 5 6 7 7 7 7 8 8 8 8 8 6 8 9 9 8 8 9 8 9 9 10 10 9 8 9 8 7 7 9 9 4 3 3 4 4 3 4
6 6 6 5 5 5 7 7 7 7 6 6 6 7 7 7 7 11 9 10 10 11 10 9 8 10 16 14 9 10 10 9 8 8 9 8 6 3 3 2 4 2 4
5 5 4 5 5 6 6 6 5 6 6 7 8 8 8 7 16 19 15 10 9 10 12 11 11 11 12 18 19 21 18 12 11 8 9 9 10 4 3 3 3 1 3
5 5 5 5 4 4 4 5 6 7 7 7 7 7 8 7 19 20 21 9 10 9 11 11 11 9 12 12 18 22 18 17 19 13 12 10 10 4 3 3 4 4 5
3 3 3 4 4 4 5 5 6 5 6 6 7 8 8 8 19 20 21 9 9 9 11 12 12 14 14 16 16 15 14 12 10 9 9 9 6 6 6 7 9 6 1
3 3 4 4 4 4 5 6 5 5 5 6 7 8 8 9 19 21 19 10 11 12 11 11 12 15 22 27 17 17 16 13 13 21 21 16 11 8 6 5 6 5 4
2 3 3 3 4 4 5 5 4 4 6 6 8 6 8 8 16 20 18 9 11 11 11 13 19 20 29 29 18 16 14 14 16 12 8 8 5 2 3 2 2 5 6
2 3 3 3 4 3 3 3 5 4 5 4 6 6 6 7 10 20 21 11 10 11 11 12 11 27 31 33 31 18 12 20 20 14 8 4 3 2 0 1 2 2 3
2 2 3 3 3 4 3 3 3 3 4 5 5 5 4 6 13 16 21 20 21 12 13 12 14 32 34 33 27 27 30 25 12 7 3 4 3 2 2 1 2 2 2
2 3 2 3 4 4 3 4 3 3 3 4 4 5 6 6 6 18 18 22 19 14 10 21 30 31 31 23 26 29 22 11 10 6 6 5 2 2 4 2 2 3 3
1 2 2 2 4 3 3 3 2 3 3 4 5 6 6 6 7 7 8 9 12 12 16 11 19 23 22 22 16 14 8 9 8 7 3 1 2 1 1 2 1 1 2
1 2 2 2 2 2 3 2 4 3 4 5 3 4 6 8 8 18 17 12 11 15 17 9 10 10 11 11 11 12 8 6 4 3 1 1 2 2 1 1 1 1 1
1 1 1 2 2 3 3 4 6 8 11 10 12 10 6 15 21 23 25 24 26 26 8 8 10 10 11 12 12 11 9 7 4 3 2 1 1 1 1 1 1 1 1
2 2 1 1 2 2 2 3 7 5 9 9 12 17 16 17 21 23 24 26 21 18 5 8 8 9 11 11 11 10 9 8 6 4 3 2 1 1 0 0 0 1 1
3 3 2 2 2 2 2 2 2 2 7 8 9 15 16 21 22 21 24 19 10 8 3 7 9 9 10 11 11 10 9 7 5 5 3 2 2 1 1 1 1 0 2
4 2 2 2 2 3 2 2 2 2 3 5 7 8 8 20 20 17 19 2 6 8 7 8 7 8 9 9 10 9 8 7 6 4 3 2 2 1 1 1 1 3 3
3 4 3 2 1 2 2 2 2 2 3 4 5 7 8 7 6 8 4 3 5 7 8 8 8 8 9 9 9 8 8 7 5 3 3 2 2 2 1 1 1 2 1
3 2 2 1 2 3 3 2 2 2 3 3 5 5 18 7 7 7 7 7 6 8 8 9 8 8 8 8 8 8 8 6 5 4 3 2 2 1 1 0 2 2 3
3 3 2 3 2 2 2 2 2 2 4 4 5 4 16 3 5 6 6 6 6 7 7 8 8 7 7 8 8 8 8 8 6 4 3 3 2 1 0 1 2 2 3
3 3 2 2 2 2 2 2 2 3 4 5 5 6 5 5 5 5 6 7 7 7 7 7 8 8 7 6 7 6 7 7 7 5 4 2 2 0 1 1 2 3 3
3 3 3 3 1 1 2 3 3 4 5 5 5 5 5 5 6 7 7 7 7 7 6 6 7 9 8 7 6 6 6 6 5 4 4 2 1 1 2 2 2 3 4
3 3 3 3 2 2 2 3 4 4 4 5 5 4 4 5 6 7 7 7 7 7 8 6 6 8 9 11 9 9 9 10 6 4 2 1 1 2 2 2 3 4 4
3 3 3 2 2 2 3 4 4 4 6 6 5 5 6 7 7 7 7 7 7 7 9 6 7 10 10 8 8 10 10 10 6 2 1 1 1 2 2 3 5 3 4
Wind_Direction
61 56 55 45 41 35 34 14 8 357 358 355 349 345 351 343 343 342 333 326 333 322 317 314 307 300 296 289 282 272 260 245 261 283 259 250 261 260 256 254 256 251 252
67 60 51 44 33 29 16 359 350 353 348 346 345 345 343 337 330 328 327 326 319 321 313 309 304 310 298 279 270 271 264 243 263 277 285 287 248 254 257 254 257 248 253
74 73 57 41 25 11 3 0 3 355 358 355 358 354 350 345 336 340 338 332 327 316 311 311 307 307 305 294 281 274 268 266 247 265 284 255 255 231 264 250 240 243 255
73 58 46 26 15 5 1 4 4 2 1 355 356 350 345 335 330 342 339 332 327 322 315 311 310 309 306 306 304 299 299 291 273 262 272 276 248 251 244 263 272 223 251
62 49 31 15 15 11 7 1 353 358 349 339 337 337 339 338 348 346 341 340 335 330 326 323 321 312 307 314 312 306 302 289 280 280 282 291 292 296 250 251 248 225 241
58 48 24 15 8 8 358 345 338 340 344 345 350 346 342 342 340 347 347 336 331 327 329 331 328 321 321 320 322 314 307 307 295 271 274 275 282 252 237 232 249 133 274
54 34 18 0 352 349 331 334 349 350 343 341 336 333 333 331 346 346 343 339 331 321 322 323 321 319 320 320 315 313 310 289 292 292 283 274 276 265 312 277 233 215 236
53 30 7 350 345 338 342 347 338 337 333 332 332 340 338 339 346 346 343 334 324 325 325 320 316 320 317 316 312 314 309 305 268 279 267 270 257 272 261 263 263 251 11
27 5 353 336 318 326 341 339 331 330 334 346 346 339 339 332 345 346 345 338 333 330 322 316 316 318 316 319 315 308 302 301 292 276 276 258 270 261 309 290 250 227 251
340 311 302 314 329 346 335 333 328 332 345 338 332 336 324 324 339 343 347 337 332 325 322 324 317 321 322 318 307 300 297 308 304 285 271 244 217 256 348 33 321 277 244
288 321 332 355 324 324 346 336 326 331 331 328 326 323 317 326 328 344 345 342 329 329 324 324 321 319 318 319 312 302 294 308 307 303 245 202 188 189 240 18 7 302 294
354 334 350 326 331 359 348 300 304 326 341 330 320 318 323 323 337 338 342 337 337 331 326 321 315 322 320 315 313 306 310 311 303 290 244 233 215 203 150 102 40 32 357
36 2 335 348 353 338 312 332 347 356 340 324 328 330 327 329 319 324 323 331 333 328 320 320 326 321 321 318 310 309 314 305 293 257 243 235 186 150 133 104 59 48 39
43 338 322 2 338 326 335 338 327 328 324 315 322 324 320 323 317 307 326 323 320 329 327 327 321 323 324 323 320 316 306 296 286 279 283 76 97 131 159 142 99 49 37
222 287 326 320 308 315 344 308 323 284 287 319 299 319 325 323 312 331 332 325 331 332 335 328 326 329 327 326 323 319 317 306 307 326 289 207 175 186 175 136 112 96 129
251 290 313 317 334 348 342 320 322 319 327 328 337 337 318 320 330 331 328 336 338 337 342 328 325 326 324 323 321 322 324 320 318 309 312 283 251 220 180 153 111 145 157
204 254 268 319 329 328 325 338 332 328 327 329 335 338 333 334 332 332 332 337 343 343 333 321 318 319 319 319 322 324 321 323 320 322 324 322 332 316 216 135 170 191 146
195 225 212 255 257 279 276 282 275 298 324 323 327 334 339 337 334 332 341 343 332 343 297 309 314 317 317 319 322 322 321 321 321 325 328 335 317 288 272 260 229 129 112
192 212 202 231 247 248 262 281 272 295 285 290 314 324 328 330 326 339 337 318 313 318 317 310 308 312 313 317 319 320 321 321 321 323 322 324 305 276 286 234 188 150 130
202 227 203 203 266 292 298 309 310 284 293 287 299 303 320 307 345 327 313 295 305 305 306 303 307 310 310 315 319 319 320 323 323 317 316 316 308 289 258 208 168 149 136
179 183 196 196 236 239 240 260 270 286 279 276 273 286 313 346 319 308 311 311 301 303 305 304 306 305 309 313 317 320 318 316 319 314 311 307 304 310 334 96 113 111 113
160 179 169 206 233 263 267 270 272 273 283 285 292 285 320 305 291 296 291 291 289 289 288 301 304 300 304 311 315 316 318 318 318 307 300 298 299 343 82 115 111 103 112
175 186 208 240 222 257 279 278 291 283 284 284 288 299 299 284 282 279 284 289 293 293 293 300 303 303 304 307 308 309 311 313 314 310 291 283 281 184 111 114 121 108 111
174 187 216 232 229 252 285 283 276 267 269 280 285 281 281 287 284 287 287 288 289 291 289 287 295 296 304 308 307 307 304 302 291 304 294 272 249 157 117 113 123 130 121
165 195 212 214 226 253 285 277 274 274 279 274 279 268 272 279 283 280 282 285 287 288 291 289 290 293 301 307 300 302 300 307 307 317 313 286 193 160 129 122 132 125 124
177 195 204 194 224 225 243 267 278 282 283 285 278 284 287 285 280 281 284 284 284 290 295 286 284 292 297 298 292 296 301 299 268 262 307 277 153 138 133 133 136 129 134